Cloud_Cover
0 0 0 0 1 100 100 97 100 10 98 5 12 66 99 97 98 83 87 100 100 100 100 100 99 46 0 0 0 0 5 5 5 3 0 3 1 1 5 5 0 0 0 0 0 0 0 0 4
0 0 0 0 0 100 100 100 100 28 96 5 9 4 33 96 11 86 67 100 100 100 100 66 34 100 61 7 0 0 3 5 5 2 5 1 0 0 0 0 0 0 0 0 5 0 0 0 5
0 0 0 0 0 76 100 100 100 80 47 5 12 6 50 46 5 66 100 100 53 94 100 100 100 80 100 28 0 0 0 1 2 0 0 4 0 0 0 0 0 0 0 0 4 4 4 5 5
0 0 0 0 1 5 99 100 100 100 95 6 16 99 5 6 14 87 99 100 56 14 100 100 100 100 10 89 1 0 0 0 0 0 0 4 0 5 0 0 0 0 0 0 5 5 5 5 0
0 0 0 0 0 1 5 99 100 100 100 100 31 92 37 99 100 5 60 100 84 4 88 100 100 100 100 22 6 0 0 0 0 0 0 1 4 5 3 4 0 0 0 0 0 0 0 0 5
0 0 0 0 0 0 0 21 100 100 100 99 70 35 56 67 94 32 5 99 100 8 55 100 100 76 96 100 100 2 0 0 0 0 0 0 0 4 5 5 4 0 0 0 0 0 0 5 5
0 0 0 0 0 0 0 0 20 100 100 100 70 85 88 56 98 100 29 62 100 77 12 100 100 100 100 100 100 77 83 3 0 0 0 0 0 0 0 5 5 5 4 5 2 0 0 5 5
0 0 0 0 0 0 0 0 0 13 100 100 100 42 73 57 33 66 53 98 66 86 87 99 100 61 69 100 32 89 5 9 2 0 0 0 0 0 0 0 0 1 4 1 0 0 0 4 5
0 0 0 0 0 0 0 0 0 0 34 100 100 96 80 100 100 100 49 5 14 37 100 100 100 97 100 100 100 98 47 5 4 0 0 0 0 0 0 0 0 0 0 0 0 0 0 0 0
0 0 0 0 0 0 0 0 0 0 0 63 100 100 100 100 100 100 98 100 44 23 51 100 100 100 100 100 99 99 100 6 2 0 0 0 0 0 0 0 0 0 0 0 0 0 0 0 0
0 0 0 0 0 0 0 0 0 0 0 0 42 100 100 100 100 100 100 100 97 89 100 58 100 100 100 100 98 66 92 54 5 5 0 0 0 0 0 0 0 0 0 0 0 0 0 0 0
0 0 0 0 0 0 0 0 0 0 0 0 0 64 96 73 100 100 100 99 100 100 100 16 48 80 100 97 7 58 96 10 5 0 5 5 0 1 4 0 7 3 4 0 0 0 0 0 0
0 0 0 0 0 0 0 0 0 0 0 0 0 0 0 83 10 100 100 100 99 100 100 89 94 59 71 100 99 5 5 8 0 5 2 84 100 100 100 100 83 18 18 5 4 0 0 0 0
0 0 0 0 0 0 0 0 0 0 0 0 0 0 0 0 4 7 100 100 100 99 100 100 100 100 100 98 88 93 100 100 100 71 50 12 95 50 6 30 46 69 81 49 4 0 0 0 0
0 0 0 0 0 0 0 0 0 0 0 0 0 0 0 0 0 78 7 98 100 100 88 100 68 99 100 83 7 57 69 88 100 100 100 99 79 95 12 6 5 6 61 94 6 5 3 90 12
0 0 0 0 0 0 0 0 0 0 0 0 0 0 0 0 5 8 33 5 26 100 100 87 100 100 84 81 7 49 21 66 70 66 73 75 5 68 5 5 6 6 89 100 48 100 68 2 5
0 0 0 0 0 0 0 0 0 0 0 0 0 0 0 0 0 0 0 0 5 11 92 100 100 100 99 73 72 31 90 17 48 22 44 95 44 100 100 85 31 5 74 97 100 95 100 18 10
0 0 0 0 0 0 0 0 0 0 0 0 0 0 0 0 0 0 0 0 0 1 5 12 75 100 100 86 90 89 79 100 60 92 60 41 19 98 100 100 77 5 21 48 65 5 16 88 40
0 0 0 0 0 0 0 0 0 0 0 0 0 0 0 0 0 0 0 0 0 0 0 4 5 40 81 100 100 95 100 71 32 30 88 100 100 100 100 100 99 100 100 12 8 5 4 8 45
0 0 0 0 0 0 0 0 0 0 0 0 0 0 0 0 0 0 0 0 0 0 0 0 0 0 8 0 69 100 100 37 75 11 79 12 29 100 100 88 97 85 87 5 3 49 63 15 6
0 0 0 0 0 0 0 0 0 0 0 0 0 0 0 0 0 0 0 0 0 0 0 0 0 0 1 1 10 29 14 100 100 100 56 16 59 62 100 100 67 99 77 96 100 42 85 62 5
0 0 0 0 0 0 0 0 0 0 0 0 0 0 0 0 0 0 0 0 0 0 0 0 0 0 7 3 4 8 2 2 26 100 100 100 100 100 100 100 100 100 91 100 91 87 24 78 89
0 0 3 2 3 5 0 0 0 0 0 0 0 0 0 0 0 0 0 0 0 0 0 0 7 4 15 44 14 24 8 1 26 5 0 20 100 100 100 100 100 100 100 100 100 100 96 92 10
46 3 0 5 5 3 5 4 5 83 8 3 64 0 0 0 0 0 0 0 0 0 0 54 80 97 83 64 84 45 10 55 14 40 18 7 12 31 100 100 100 100 100 100 100 100 100 100 100
2 5 5 56 78 2 21 77 53 97 20 2 64 0 0 0 0 0 0 0 0 0 0 2 78 52 68 100 100 100 49 81 98 10 88 50 91 61 27 58 100 100 100 100 100 100 100 100 100
100 98 100 100 100 100 100 77 99 3 3 0 8 0 0 0 0 0 0 0 0 0 0 0 0 3 49 24 52 56 99 92 100 58 92 100 100 100 100 0 5 53 87 100 100 100 100 100 100
91 100 100 100 23 100 100 100 100 7 78 70 7 0 4 5 0 0 0 0 0 0 0 0 2 1 0 1 26 83 100 100 72 67 56 100 100 100 100 44 34 95 100 74 86 100 100 100 100
82 100 88 100 100 100 100 100 100 99 79 40 24 5 3 5 4 0 0 0 0 0 0 0 0 0 0 0 0 6 99 52 98 83 48 100 100 100 100 87 45 80 61 32 2 60 100 98 73
78 8 47 100 94 100 100 100 100 99 100 100 98 54 16 34 1 3 0 0 0 0 0 0 0 2 0 0 0 0 0 23 11 90 100 100 100 100 100 100 99 97 62 8 10 3 6 32 69
3 100 100 60 87 47 97 100 100 100 100 100 100 100 89 100 100 88 61 6 5 4 0 0 0 0 0 0 0 0 0 0 0 31 27 100 100 100 100 92 28 100 73 67 15 5 0 8 0